Location: Palomar Observatory
(33.3560°N, 116.8630°W)
Time: 14:08:33
(UTC-07:00)

Iridium 57 - Visible Passes

Search period start: 01 July 2015 00:00
Search period end: 11 July 2015 00:00
Orbit: 776 x 779 km, 86.4° (Epoch: 01 July)

Date Brightness Start Highest point End Pass type
(mag) Time Alt. Az. Time Alt. Az. Time Alt. Az.
01 Jul 6.7 21:50:57 10° SSW 21:55:51 41° W 22:00:46 10° NNW visible
02 Jul 5.6 21:17:04 10° S 21:22:16 82° W 21:27:31 10° N visible
03 Jul 5.8 20:43:48 10° SSE 20:48:48 51° E 20:53:52 10° NNE visible
03 Jul 8.2 22:27:03 10° WSW 22:29:57 14° WNW 22:32:34 10° NW visible
04 Jul 7.4 21:51:38 10° SW 21:56:05 28° W 22:00:28 10° NNW visible
05 Jul 6.3 21:17:19 10° SSW 21:22:24 54° W 21:27:31 10° N visible
06 Jul 5.5 20:43:41 10° S 20:48:52 77° E 20:54:06 10° N visible
07 Jul 8.1 21:52:41 10° WSW 21:56:23 19° WNW 21:59:53 10° NW visible
08 Jul 7.1 21:17:48 10° SSW 21:22:35 36° W 21:27:20 10° NNW visible
09 Jul 5.8 20:43:47 10° S 20:48:58 71° W 20:54:11 10° N visible
10 Jul 8.4 21:54:29 10° W 21:56:44 12° WNW 21:58:40 10° NW visible
